Regional Weather Roundup
Issued by NWS

Home | Current Version | Previous Version | Graphics & Text | Print | Product List | Glossary On
Versions: 1 2 3 4 5 6 7 8 9 10 11 12 13 14 15 16 17 18 19 20 21 22 23 24 25 26 27 28 29 30 31 32 33 34 35 36 37 38 39 40 41 42 43 44 45 46 47 48 49 50
000
ASUS43 KIND 021159
RWRIN

WEATHER ROUNDUP FOR INDIANA
NATIONAL WEATHER SERVICE INDIANAPOLIS IN
800 AM EDT THU JUL 02 2015

NOTE: "FAIR" INDICATES FEW OR NO CLOUDS BELOW 12,000 FEET WITH NO
SIGNIFICANT WEATHER AND/OR OBSTRUCTIONS TO VISIBILITY.

* - STATION DOES NOT REPORT WEATHER SUCH AS PRECIPITATION OR FOG.

+ - STATION NOT QUALITY CONTROLLED BY THE NATIONAL WEATHER SERVICE.
    USE DATA WITH CAUTION...ESPECIALLY DEWPOINT AND RELATIVE
    HUMIDITY OBSERVATIONS.

INZ001>003-010>013-019-020-021300-
NORTHWEST INDIANA

CITY           SKY/WX    TMP DP  RH WIND       PRES   REMARKS
GARY /AIRPORT/ CLOUDY    61  57  88 N9        29.98R
RENSSELAER +   MOSUNNY   55  55 100 N7        29.96R

$$

LMZ046-743>745-021300-
SOUTHERN LAKE MICHIGAN

STATION/POSITION TIME  TEMP    WIND        PRES    WAVE
                       AIR SEA DIR/SP/G            HT
                 (UTC) (F)     (DEG/KT/KT) (MB)    (FT)
BURNS HARBOR     1100   60      70/ 14/ 16 1015.2R
MICHIGAN CITY    1100   57      40/ 14/ 16   N/A
5NW MICH CITY    1100   59 64   70/ 12/ 16   N/A     4

$$

INZ004-005-014>016-021>024-021300-
NORTH CENTRAL INDIANA

CITY           SKY/WX    TMP DP  RH WIND       PRES   REMARKS
ELKHART        SUNNY     57  55  94 NE9       29.97R
GOSHEN         SUNNY     57  54  89 NE9       29.97R
6HR MIN TEMP:  55; 6HR MAX TEMP:  57;

SOUTH BEND     SUNNY     57  54  89 E6        29.98R
6HR MIN TEMP:  53; 6HR MAX TEMP:  57;


$$

INZ006>009-017-018-025>027-021300-
NORTHEAST INDIANA

CITY           SKY/WX    TMP DP  RH WIND       PRES   REMARKS
ANGOLA *+        N/A     57  45  62 E9        29.98R
FORT WAYNE     PTSUNNY   62  57  83 E9        29.95S
6HR MIN TEMP:  58; 6HR MAX TEMP:  62;


$$

INZ028-029-035-036-043>045-051>053-021300-
WEST CENTRAL INDIANA

CITY           SKY/WX    TMP DP  RH WIND       PRES   REMARKS
CRAWFORDSVL +  MOSUNNY   57  52  82 NE6       29.91F
6HR MIN TEMP:  57; 6HR MAX TEMP:  59;

GREENCASTLE +  CLOUDY    61  52  72 NE3       29.91S
LAFAYETTE      PTSUNNY   57  54  89 NE9       29.92F
6HR MIN TEMP:  57; 6HR MAX TEMP:  59;

TERRE HAUTE    PTSUNNY   63  55  75 NE5       29.89S
6HR MIN TEMP:  62; 6HR MAX TEMP:  67; 6HR PCP: TRACE;


$$

INZ030>032-037>040-046>048-054>057-064-065-021300-
CENTRAL INDIANA

CITY           SKY/WX    TMP DP  RH WIND       PRES   REMARKS
COLUMBUS       CLOUDY    64  59  82 NE7       29.88F
GREENWOOD *+   CLOUDY    63  54  72 NE5       29.90S
INDIANAPOLIS   PTSUNNY   63  55  75 NE8       29.88F
6HR MIN TEMP:  62; 6HR MAX TEMP:  67;

-EAGLE CREEK   PTSUNNY   63  55  75 NE6       29.89F
6HR MIN TEMP:  62; 6HR MAX TEMP:  65;

KOKOMO *+      CLOUDY    61  54  77 NE8       29.93S
6HR MIN TEMP:  57; 6HR MAX TEMP:  61;

MT COMFORT *+  CLOUDY    63 N/A N/A NE6       29.90S
SHELBYVILLE    CLOUDY    65  60  84 NE5       29.88S
6HR MIN TEMP:  64; 6HR MAX TEMP:  70;


$$

INZ033-034-041-042-049-050-058-059-021300-
EAST CENTRAL INDIANA

CITY           SKY/WX    TMP DP  RH WIND       PRES   REMARKS
MUNCIE         PTSUNNY   62  57  83 NE7       29.91F
6HR MIN TEMP:  62; 6HR MAX TEMP:  64;


$$

INZ060-061-067>069-081>083-085>088-021300-
SOUTHWEST INDIANA

CITY           SKY/WX    TMP DP  RH WIND       PRES   REMARKS
EVANSVILLE     LGT RAIN  71  69  93 SE3       29.85S
6HR MIN TEMP:  70; 6HR MAX TEMP:  73; 6HR PCP:  0.20;

HUNTINGBURG *+ CLOUDY    72  68  88 CALM      29.86S
6HR MIN TEMP:  72; 6HR MAX TEMP:  72; 6HR PCP:  0.06;


$$

INZ062-063-066-070>080-084-089>092-021300-
SOUTH CENTRAL AND SOUTHEAST INDIANA

CITY           SKY/WX    TMP DP  RH WIND       PRES   REMARKS
BLOOMINGTON    CLOUDY    65  61  87 NE5       29.89R
6HR MIN TEMP:  65; 6HR MAX TEMP:  71; 6HR PCP: TRACE;

MADISON *+     CLOUDY    70  68  94 CALM      29.90S
SEYMOUR +      CLOUDY    70  70 100 CALM      29.88R

$$



USA.gov is the U.S. government's official web portal to all federal, state and local government web resources and services.